Weather History for Santa Fe, NM

Change the Weather History Date:

Thursday, April 3, 2014

  Actual Average Record
Temperature  
Mean Temperature 40 °F -  
Max Temperature 51 °F 0 °F 73 °F (2011)
Min Temperature 30 °F - 24 °F (1999)
Degree Days  
Heating Degree Days 24    
Moisture  
Dew Point 19 °F    
Average Humidity 49    
Maximum Humidity 86    
Minimum Humidity 21    
Precipitation  
Precipitation 0.00 in - - ()
Sea Level Pressure  
Sea Level Pressure 29.82 in    
Wind  
Wind Speed 14 mph (West)    
Max Wind Speed 25 mph    
Max Gust Speed 33 mph    
Visibility 10 miles    
Events Rain , Snow    
Averages and records for this station are not official NWS values.
T = Trace of Precipitation, MM = Missing Value Source: NWS Daily Summary

Daily Weather History Graph

Daily Weather History Graph

Search for Another Location

Airport:

Trip Planner

Search our weather history database for the weather conditions in past years. The results will help you decide how hot, cold, wet, or windy it might be!

Date:

Astronomy

Apr. 03, 2014 Rise Set
Actual Time 6:47 AM MDT 7:27 PM MDT
Civil Twilight 6:22 AM MDT 7:53 PM MDT
Nautical Twilight 5:51 AM MDT 8:23 PM MDT
Astronomical Twilight 5:20 AM MDT 8:55 PM MDT
Moon 9:25 AM MDT (4/3) 11:42 PM MDT (4/3)
Length of Visible Light 13h 31m
Length of Day
12h 39m
Waxing Crescent, 18% of the Moon is Illuminated
Apr 3
Waxing Crescent
Apr 7
First Quarter
Apr 15
Full
Apr 22
Last Quarter
Apr 29
New

Hourly Weather History & Observations

Time (MDT) Temp. Windchill Dew Point Humidity Pressure Visibility Wind Dir Wind Speed Gust Speed Precip Events Conditions
12:53 AM 41.0 °F 34.3 °F 7.0 °F 25% 29.63 in 10.0 mi West 11.5 mph - N/A   Clear
1:53 AM 39.9 °F 32.5 °F 8.1 °F 27% 29.62 in 10.0 mi West 12.7 mph - N/A   Clear
2:53 AM 37.0 °F 29.3 °F 9.0 °F 31% 29.63 in 10.0 mi WSW 11.5 mph - N/A   Clear
3:53 AM 34.0 °F 28.0 °F 12.0 °F 40% 29.64 in 10.0 mi WSW 6.9 mph - N/A   Clear
4:53 AM 30.9 °F 24.3 °F 12.9 °F 47% 29.65 in 10.0 mi SW 6.9 mph - N/A   Clear
5:53 AM 33.1 °F 27.7 °F 15.1 °F 48% 29.65 in 10.0 mi WSW 5.8 mph - N/A   Overcast
6:53 AM 33.1 °F 24.9 °F 18.0 °F 54% 29.65 in 10.0 mi SW 10.4 mph - N/A   Overcast
7:53 AM 35.1 °F 22.7 °F 18.0 °F 50% 29.67 in 10.0 mi WSW 25.3 mph 32.2 mph N/A   Overcast
8:53 AM 34.0 °F 23.0 °F 19.9 °F 56% 29.72 in 10.0 mi West 18.4 mph 26.5 mph N/A   Overcast
9:40 AM 30.9 °F 17.5 °F 25.0 °F 79% 29.85 in 5.0 mi WSW 24.2 mph 33.4 mph 0.00 in   Mostly Cloudy
9:50 AM 30.2 °F 17.4 °F 26.6 °F 86% 29.85 in 5.0 mi WSW 20.7 mph 29.9 mph 0.00 in Snow Light Snow
9:53 AM 30.9 °F 18.4 °F 25.0 °F 79% 29.77 in 6.0 mi WSW 20.7 mph 29.9 mph 0.00 in Snow Light Snow
10:39 AM 34.0 °F 23.4 °F 24.1 °F 67% 29.88 in 10.0 mi SW 17.3 mph 24.2 mph 0.00 in   Mostly Cloudy
10:53 AM 36.0 °F 25.6 °F 25.0 °F 64% 29.79 in 10.0 mi WSW 18.4 mph 24.2 mph 0.00 in   Overcast
11:25 AM 37.9 °F 30.0 °F 24.1 °F 57% 29.89 in 10.0 mi WSW 12.7 mph 23.0 mph N/A   Overcast
11:53 AM 42.1 °F 33.9 °F 23.0 °F 47% 29.78 in 10.0 mi WSW 17.3 mph 25.3 mph N/A   Overcast
12:53 PM 46.0 °F 41.9 °F 18.0 °F 33% 29.76 in 10.0 mi West 8.1 mph 25.3 mph N/A   Mostly Cloudy
1:29 PM 44.1 °F 37.1 °F 19.9 °F 38% 29.90 in 10.0 mi North 15.0 mph 29.9 mph N/A   Overcast
1:38 PM 42.1 °F 34.5 °F 24.1 °F 49% 29.90 in 9.0 mi NNE 15.0 mph 24.2 mph 0.00 in Rain Light Rain
1:53 PM 43.0 °F 36.8 °F 23.0 °F 45% 29.81 in 10.0 mi North 11.5 mph 26.5 mph 0.00 in   Overcast
2:53 PM 50.0 °F - 15.1 °F 25% 29.79 in 10.0 mi West 21.9 mph 29.9 mph N/A   Scattered Clouds
3:53 PM 50.0 °F - 14.0 °F 24% 29.83 in 10.0 mi West 17.3 mph 27.6 mph N/A   Partly Cloudy
4:53 PM 50.0 °F - 12.9 °F 23% 29.86 in 10.0 mi WSW 17.3 mph - N/A   Scattered Clouds
5:53 PM 51.1 °F - 12.0 °F 21% 29.87 in 10.0 mi West 13.8 mph 19.6 mph N/A   Mostly Cloudy
6:18 PM 45.0 °F 37.9 °F 17.1 °F 33% 29.99 in 10.0 mi North 16.1 mph 26.5 mph N/A   Overcast
6:53 PM 44.1 °F 38.1 °F 18.0 °F 35% 29.94 in 10.0 mi NNE 11.5 mph - N/A   Mostly Cloudy
7:53 PM 39.9 °F 30.2 °F 24.1 °F 53% 29.99 in 10.0 mi North 20.7 mph 27.6 mph N/A   Overcast
9:53 PM 34.0 °F 26.6 °F 24.1 °F 67% 30.10 in 10.0 mi NNE 9.2 mph - N/A   Clear
10:53 PM 30.0 °F 24.1 °F 25.0 °F 82% 30.11 in 10.0 mi North 5.8 mph - N/A   Clear
11:53 PM 32.0 °F 28.7 °F 24.1 °F 73% 30.09 in 10.0 mi NE 3.5 mph - N/A   Clear